Погода в Млыновцах

Украина / Тернопольская область     49°41′54″N   25°07′37″E
темп.,
°C
ветер,
м/с
пор.,
м/с
влажн.,
%
обл.,
%
осадки,
мм/ч
давл.,
гПа
погр.,
м
28 февраля, вс
вс2823:00+2сз61289100 0.1 1028735
02:00+1сз7129196 0.2 1029665
05:000сз71194100 0.0 1030610
08:00−1сз71092100 0.0 1031553
11:000зсз7118799 0.0 1031566
14:00+3зсз7117476 0.0 1029805
17:00+3зсз71376100 0.0 1027764
20:00+3зсз91585100 0.0 1026870
1 марта, пн
пн123:00+1сз81396100 2.2 1026771
02:00+2ссз71297100 4.4 1027638
05:00+1с7119799 0.3 1028666
08:00+1с489498 0.4 1031542
11:00+2с468399 0.1 1033660
14:00+3ссз457693 0.2 1034812
17:00+3ссз467897 0.1 1034702
20:00+1зсз238689 0.1 103589
2 марта, вт
вт223:000з339066 0.0 103568
02:00+1з498967 0.0 1035248
05:00+1з5119451 0.0 1033318
08:00+1з6139264 0.0 1032382
11:00+5зсз713780 0.0 1031616
14:00+8зсз813670 0.0 1029822
17:00+7зсз814690 0.0 1028784
20:00+5сз716780 0.0 1029605
3 марта, ср
ср323:00+3сз512880 0.0 1031353
02:00+2зсз499428 0.0 1031218
05:00+1зсз489753 0.0 1031201
08:00+1сз389844 0.0 1031239
11:00+5сз468449 0.0 1031388
14:00+7зсз346729 0.0 1029646
17:00+7зсз24700 0.0 1028617
20:00+4юз12830 0.0 102822
4 марта, чт
чт423:00+3юз23880 0.0 102725
02:00+2юз34890 0.0 102474
05:00+1юз349015 0.0 102282
08:00+2зюз37828 0.0 1021159
11:00+7зюз696735 0.0 1018657
14:00+9з696019 0.0 10161148
17:00+9з486217 0.0 1014732
20:00+6зюз5117721 0.0 1013292